CW0069 Weather Reports


Display with metric or nautical units.
time (UTC)temp
F
wind
direction
speed
MPH
gust
MPH
rain 1hr
in
rain 24hr
in
rain mn
in
humidity
%
barometer
mb
20260505060404 72 164 11.0 18.0 0.00 0.00 0.00 58 1004.5
20260505055904 72 161 10.0 18.0 0.00 0.00 0.00 58 1004.4
20260505055403 72 148 12.0 17.0 0.00 0.00 0.00 58 1004.4
20260505054903 72 160 9.0 20.0 0.00 0.00 0.00 58 1004.5
20260505053903 72 152 13.0 21.0 0.00 0.00 0.00 57 1004.5
20260505052904 72 147 10.0 17.0 0.00 0.00 0.00 57 1004.6
20260505052404 72 164 10.0 20.0 0.00 0.00 0.00 57 1004.7
20260505051904 72 160 9.0 18.0 0.00 0.00 0.00 57 1004.9
20260505051404 72 160 9.0 18.0 0.00 0.00 0.00 57 1004.8
20260505050403 73 152 10.0 16.0 0.00 0.00 0.00 56 1004.8
20260505041404 73 146 9.0 17.0 0.00 0.00 0.00 55 1005.1
20260505040405 73 153 7.0 15.0 0.00 0.00 0.00 55 1005.1
20260505035904 73 132 9.0 16.0 0.00 0.00 0.00 54 1005.1
20260505035405 73 153 7.0 14.0 0.00 0.00 0.00 54 1005.0
20260505034905 74 149 8.0 15.0 0.00 0.00 0.00 54 1004.8
20260505034404 74 144 9.0 20.0 0.00 0.00 0.00 54 1004.8
20260505033405 74 149 10.0 17.0 0.00 0.00 0.00 54 1005.0
20260505032905 74 147 8.0 15.0 0.00 0.00 0.00 54 1004.9
20260505031904 74 145 9.0 14.0 0.00 0.00 0.00 53 1005.0
20260505031405 74 155 9.0 20.0 0.00 0.00 0.00 53 1005.1
20260505030405 74 156 9.0 21.0 0.00 0.00 0.00 53 1005.1
20260505025904 74 149 8.0 15.0 0.00 0.00 0.00 53 1005.2
20260505025405 74 157 7.0 16.0 0.00 0.00 0.00 53 1005.1
20260505024905 74 142 6.0 15.0 0.00 0.00 0.00 53 1005.0
20260505024405 74 151 6.0 14.0 0.00 0.00 0.00 53 1005.0
20260505023905 74 138 9.0 14.0 0.00 0.00 0.00 52 1004.8
20260505023405 74 149 6.0 17.0 0.00 0.00 0.00 52 1004.5
20260505022404 75 153 7.0 12.0 0.00 0.00 0.00 52 1004.8
20260505021905 75 148 7.0 14.0 0.00 0.00 0.00 52 1004.7
20260505021405 75 148 7.0 15.0 0.00 0.00 0.00 52 1004.7
20260505020904 75 139 7.0 13.0 0.00 0.00 0.00 52 1004.6
20260505020405 75 146 7.0 12.0 0.00 0.00 0.00 52 1004.7
20260505015904 75 144 8.0 15.0 0.00 0.00 0.00 52 1004.6
20260505015405 75 160 6.0 14.0 0.00 0.00 0.00 52 1004.7
20260505013904 75 151 8.0 15.0 0.00 0.00 0.00 51 1004.6
20260505013405 76 147 8.0 15.0 0.00 0.00 0.00 51 1004.6
20260505012905 76 148 8.0 14.0 0.00 0.00 0.00 51 1004.7
20260505011905 76 154 7.0 16.0 0.00 0.00 0.00 51 1004.7
20260505011405 76 154 10.0 14.0 0.00 0.00 0.00 51 1004.7
20260505010905 76 158 7.0 14.0 0.00 0.00 0.00 50 1004.7
20260505010405 77 153 10.0 18.0 0.00 0.00 0.00 50 1004.6
20260505005908 77 150 8.0 16.0 0.00 0.00 0.00 50 1004.7
20260505005405 77 150 7.0 20.0 0.00 0.00 0.00 50 1004.6
20260505004905 77 172 9.0 15.0 0.00 0.00 0.00 50 1004.6
20260505004405 77 152 9.0 17.0 0.00 0.00 0.00 50 1004.8
20260505003904 77 153 12.0 20.0 0.00 0.00 0.00 49 1004.6
20260505003405 78 157 12.0 20.0 0.00 0.00 0.00 49 1004.5
20260505002405 78 154 10.0 16.0 0.00 0.00 0.00 49 1004.9
20260505001905 78 158 11.0 18.0 0.00 0.00 0.00 49 1004.9
20260505000904 78 160 12.0 18.0 0.00 0.00 0.00 48 1004.8
20260504235904 79 165 13.0 23.0 0.00 0.00 0.00 48 1004.9
20260504235404 79 178 12.0 20.0 0.00 0.00 0.00 47 1005.0
20260504234905 79 168 9.0 18.0 0.00 0.00 0.00 47 1005.0
20260504234405 79 164 12.0 21.0 0.00 0.00 0.00 47 1005.0
20260504233905 79 147 10.0 20.0 0.00 0.00 0.00 48 1005.0
20260504233404 79 164 14.0 22.0 0.00 0.00 0.00 47 1005.0
20260504232905 80 170 13.0 22.0 0.00 0.00 0.00 47 1004.9
20260504231905 80 155 10.0 18.0 0.00 0.00 0.00 47 1005.2
20260504231404 80 165 11.0 26.0 0.00 0.00 0.00 46 1005.2
20260504230905 80 166 13.0 25.0 0.00 0.00 0.00 45 1005.1
20260504225905 80 145 14.0 24.0 0.00 0.00 0.00 45 1005.4
20260504224904 81 182 14.0 26.0 0.00 0.00 0.00 45 1005.4
20260504223404 81 175 13.0 24.0 0.00 0.00 0.00 46 1005.3
20260504222904 81 148 14.0 29.0 0.00 0.00 0.00 45 1005.4
20260504221905 81 148 13.0 20.0 0.00 0.00 0.00 45 1005.5
20260504221406 81 168 13.0 22.0 0.00 0.00 0.00 45 1005.6
20260504220905 81 155 15.0 24.0 0.00 0.00 0.00 45 1005.7
20260504220404 81 169 12.0 22.0 0.00 0.00 0.00 45 1005.8
20260504215904 81 172 15.0 22.0 0.00 0.00 0.00 45 1005.8
20260504215404 81 176 14.0 28.0 0.00 0.00 0.00 44 1005.7
20260504214405 81 154 12.0 20.0 0.00 0.00 0.00 43 1006.0
20260504213905 82 159 16.0 24.0 0.00 0.00 0.00 43 1006.2
20260504213404 82 145 13.0 22.0 0.00 0.00 0.00 44 1006.2
20260504212405 82 184 12.0 24.0 0.00 0.00 0.00 42 1006.2
20260504211904 82 173 13.0 26.0 0.00 0.00 0.00 43 1006.4
20260504210905 81 166 11.0 17.0 0.00 0.00 0.00 44 1006.6
20260504210405 81 154 14.0 23.0 0.00 0.00 0.00 44 1006.7
20260504205905 81 145 12.0 20.0 0.00 0.00 0.00 43 1006.9
20260504205405 81 166 12.0 21.0 0.00 0.00 0.00 43 1006.8
20260504204908 81 146 13.0 20.0 0.00 0.00 0.00 42 1006.9
20260504204405 81 168 15.0 24.0 0.00 0.00 0.00 43 1007.0
20260504203905 81 141 14.0 24.0 0.00 0.00 0.00 42 1007.1
20260504202904 81 140 16.0 25.0 0.00 0.00 0.00 41 1007.4
20260504202404 81 153 13.0 25.0 0.00 0.00 0.00 41 1007.6
20260504201905 81 175 16.0 24.0 0.00 0.00 0.00 41 1007.7
20260504201405 81 156 14.0 21.0 0.00 0.00 0.00 40 1007.8
20260504200905 81 158 10.0 26.0 0.00 0.00 0.00 41 1008.0
20260504195905 81 153 14.0 23.0 0.00 0.00 0.00 41 1008.1
20260504195405 81 175 15.0 23.0 0.00 0.00 0.00 40 1008.2
20260504194904 81 149 13.0 21.0 0.00 0.00 0.00 40 1008.2
20260504194405 81 164 12.0 18.0 0.00 0.00 0.00 40 1008.2
20260504193904 81 153 14.0 22.0 0.00 0.00 0.00 40 1008.4
20260504193405 81 130 12.0 21.0 0.00 0.00 0.00 41 1008.4
20260504192905 81 172 13.0 21.0 0.00 0.00 0.00 39 1008.4
20260504192405 81 143 14.0 25.0 0.00 0.00 0.00 41 1008.5
20260504191904 81 161 16.0 26.0 0.00 0.00 0.00 41 1008.6
20260504191404 81 176 14.0 23.0 0.00 0.00 0.00 40 1008.7
20260504190405 80 162 13.0 29.0 0.00 0.00 0.00 38 1008.8
20260504185905 80 157 13.0 25.0 0.00 0.00 0.00 41 1008.8
20260504185405 80 167 14.0 24.0 0.00 0.00 0.00 38 1008.9
20260504183905 80 155 13.0 22.0 0.00 0.00 0.00 38 1009.1
20260504183405 80 140 12.0 20.0 0.00 0.00 0.00 37 1009.2
20260504182405 80 138 13.0 26.0 0.00 0.00 0.00 37 1009.4
20260504181905 80 154 14.0 21.0 0.00 0.00 0.00 37 1009.4
20260504181404 80 153 13.0 21.0 0.00 0.00 0.00 38 1009.4
20260504180904 80 156 14.0 22.0 0.00 0.00 0.00 38 1009.5
20260504180405 79 162 13.0 20.0 0.00 0.00 0.00 39 1009.6
20260504175906 79 165 13.0 25.0 0.00 0.00 0.00 37 1009.8
20260504174904 79 141 10.0 20.0 0.00 0.00 0.00 38 1010.0
20260504174405 78 154 12.0 21.0 0.00 0.00 0.00 40 1010.0
20260504173404 78 145 14.0 23.0 0.00 0.00 0.00 38 1010.2
20260504172904 78 166 13.0 25.0 0.00 0.00 0.00 40 1010.2
20260504171907 77 152 12.0 21.0 0.00 0.00 0.00 40 1010.5
20260504171405 77 148 12.0 20.0 0.00 0.00 0.00 41 1010.5
20260504170904 76 179 13.0 24.0 0.00 0.00 0.00 41 1010.5
20260504170405 76 160 14.0 22.0 0.00 0.00 0.00 40 1010.8
20260504160404 74 151 16.0 28.0 0.00 0.00 0.00 43 1011.5
20260504150905 71 166 11.0 23.0 0.00 0.00 0.00 47 1011.7
20260504150406 70 170 14.0 23.0 0.00 0.00 0.00 48 1011.6
20260504140405 66 183 9.0 16.0 0.00 0.00 0.00 53 1012.3
20260504130405 62 169 7.0 12.0 0.00 0.00 0.00 57 1012.4
20260504110409 58 154 4.0 6.0 0.00 0.00 0.00 58 1011.8
20260504100405 60 158 5.0 8.0 0.00 0.00 0.00 55 1012.0
20260504081904 62 184 6.0 14.0 0.00 0.00 0.00 52 1012.2
20260504081404 62 166 7.0 12.0 0.00 0.00 0.00 52 1012.3
20260504080904 62 172 6.0 12.0 0.00 0.00 0.00 51 1012.3
20260504080405 62 174 6.0 12.0 0.00 0.00 0.00 51 1012.4